Location: Unspecified
(0.0000°N, 0.0000°E)
Time: 14:11:51
(UTC+00:00)

Vanguard 1 Rocket - All Passes

Search period start: 30 March 2015 00:00
Search period end: 09 April 2015 00:00
Orbit: 656 x 4223 km, 34.3° (Epoch: 29 March)

Date Brightness Start Highest point End Pass type
(mag) Time Alt. Az. Time Alt. Az. Time Alt. Az.
30 Mar - 02:25:33 10° SW 02:50:25 51° SSE 03:07:51 10° ENE visible
30 Mar - 04:59:33 10° WSW 05:22:49 73° NW 05:35:01 10° NE visible
30 Mar - 07:41:09 10° W 07:50:44 18° NW 07:56:38 10° N daylight
30 Mar - 15:13:09 10° NNW 15:17:41 30° NE 15:24:42 10° ESE daylight
30 Mar - 17:36:41 10° WNW 17:43:35 48° SSW 17:56:37 10° SE daylight
30 Mar - 20:05:57 10° WSW 20:15:23 22° S 20:29:03 10° SSE visible
30 Mar - 22:39:45 10° SSW 22:53:54 21° S 23:11:34 10° SE visible
31 Mar - 01:11:19 10° SW 01:34:03 38° SSE 01:53:49 10° E visible
31 Mar - 03:43:32 10° SW 04:09:15 82° SE 04:24:10 10° ENE visible
31 Mar - 06:21:19 10° WSW 06:38:41 36° NW 06:48:12 10° NNE daylight
31 Mar - 14:06:32 10° NNE 14:07:06 10° NE 14:08:01 10° NE daylight
31 Mar - 16:26:13 10° WNW 16:31:58 81° SW 16:42:47 10° SE daylight
31 Mar - 18:53:05 10° WSW 19:01:01 26° SSW 19:13:36 10° SSE visible
31 Mar - 21:25:46 10° SW 21:36:37 18° S 21:51:03 10° SE visible
31 Mar - 23:57:38 10° SSW 00:16:50 29° SSE 00:37:23 10° ESE visible
01 Apr - 02:28:32 10° SW 02:54:25 61° SSE 03:12:14 10° ENE visible
01 Apr - 05:03:18 10° WSW 05:26:11 59° NW 05:38:31 10° NE visible
01 Apr - 07:48:11 10° WNW 07:54:42 13° NW 07:58:52 10° NNW daylight
01 Apr - 15:16:29 10° NW 15:21:17 48° NE 15:29:05 10° ESE daylight
01 Apr - 17:41:16 10° W 17:47:55 34° SSW 17:59:27 10° SE daylight
01 Apr - 20:11:57 10° SW 20:20:32 18° S 20:32:17 10° SSE visible
01 Apr - 22:44:21 10° SSW 22:59:16 22° SSE 23:18:05 10° ESE visible
02 Apr - 01:14:27 10° SW 01:38:24 46° SSE 01:58:46 10° E visible
02 Apr - 03:46:47 10° SW 04:12:44 84° NW 04:27:56 10° NE visible
02 Apr - 06:26:30 10° W 06:42:16 28° NW 06:51:19 10° NNE daylight
02 Apr - 14:07:46 10° N 14:10:52 18° NE 14:14:52 10° E daylight
02 Apr - 16:30:20 10° WNW 16:35:56 54° SSW 16:46:03 10° SE daylight
02 Apr - 18:58:40 10° SW 19:05:51 20° SSW 19:16:10 10° SSE visible
02 Apr - 21:31:16 10° SSW 21:42:04 18° S 21:56:39 10° SE visible
03 Apr - 00:01:07 10° SSW 00:21:34 34° SSE 00:43:09 10° E visible
03 Apr - 02:31:35 10° SW 02:58:08 73° SE 03:16:19 10° ENE visible
03 Apr - 05:07:26 10° WSW 05:29:33 48° NW 05:41:53 10° NNE visible
03 Apr - 15:20:07 10° NW 15:24:58 78° NE 15:32:59 10° ESE daylight
03 Apr - 17:46:16 10° WSW 17:52:27 24° SSW 18:02:03 10° SSE daylight
03 Apr - 20:18:07 10° SSW 20:25:49 15° S 20:36:03 10° SSE visible
03 Apr - 22:48:23 10° SSW 23:04:24 25° SSE 23:24:36 10° ESE visible
04 Apr - 01:17:31 10° SW 01:42:25 55° SSE 02:03:21 10° ENE visible
04 Apr - 03:50:17 10° WSW 04:16:05 71° NW 04:31:29 10° NE visible
04 Apr - 06:32:22 10° W 06:46:03 22° NW 06:54:16 10° N daylight
04 Apr - 14:10:38 10° NNW 14:14:34 30° NE 14:19:49 10° E daylight
04 Apr - 16:34:46 10° W 16:40:08 35° SSW 16:49:01 10° SE daylight
04 Apr - 19:04:50 10° SW 19:10:51 15° S 19:18:42 10° SSE visible
04 Apr - 21:36:06 10° SSW 21:47:25 19° SSE 22:03:05 10° SE visible
05 Apr - 00:04:22 10° SSW 00:25:58 41° SSE 00:48:26 10° E visible
05 Apr - 02:34:46 10° SW 03:01:37 86° SE 03:20:08 10° NE visible
05 Apr - 05:12:03 10° WSW 05:33:01 39° NW 05:45:07 10° NNE visible
05 Apr - 13:03:20 10° NNE 13:03:54 10° NNE 13:04:43 10° NE daylight
05 Apr - 15:24:02 10° WNW 15:28:49 64° SSW 15:36:31 10° SE daylight
05 Apr - 17:51:51 10° SW 17:57:09 17° SSW 18:04:22 10° SSE daylight
05 Apr - 20:24:01 10° SSW 20:31:08 14° S 20:40:45 10° SE visible
05 Apr - 22:52:01 10° SSW 23:09:12 29° SSE 23:30:50 10° E visible
06 Apr - 01:20:36 10° SW 01:46:09 65° SE 02:07:34 10° ENE visible
06 Apr - 03:54:05 10° WSW 04:19:24 59° NW 04:34:54 10° NE visible
06 Apr - 06:39:02 10° WNW 06:50:07 17° NNW 06:57:03 10° N daylight
06 Apr - 14:13:58 10° NW 14:18:16 52° NE 14:24:07 10° ESE daylight
06 Apr - 16:39:39 10° WSW 16:44:32 23° SSW 16:51:41 10° SSE daylight
06 Apr - 19:11:39 10° SSW 19:15:58 12° S 19:21:11 10° SSE visible
06 Apr - 21:40:17 10° SSW 21:52:33 21° SSE 22:09:55 10° ESE visible
07 Apr - 00:07:32 10° SW 00:30:00 48° SSE 00:53:17 10° ENE visible
07 Apr - 02:38:08 10° SW 03:04:58 81° NW 03:23:45 10° NE visible
07 Apr - 05:17:14 10° W 05:36:40 31° NW 05:48:16 10° NNE visible
07 Apr - 13:04:41 10° N 13:07:49 19° NE 13:11:15 10° E daylight
07 Apr - 15:28:18 10° W 15:32:51 38° SSW 15:39:43 10° SE daylight
07 Apr - 17:58:25 10° SSW 18:01:59 12° S 18:06:07 10° SSE daylight
07 Apr - 20:29:09 10° SSW 20:36:25 14° SSE 20:46:39 10° SE visible
07 Apr - 22:55:22 10° SSW 23:13:39 35° SSE 23:36:34 10° E visible
08 Apr - 01:23:46 10° SW 01:49:38 77° SE 02:11:29 10° ENE visible
08 Apr - 03:58:18 10° WSW 04:22:48 49° NW 04:38:12 10° NNE visible
08 Apr - 06:46:36 10° WNW 06:54:29 13° NNW 06:59:34 10° N daylight
08 Apr - 14:17:39 10° NW 14:22:03 86° SSW 14:27:58 10° SE daylight
08 Apr - 16:45:15 10° SW 16:49:04 15° SSW 16:53:52 10° SSE daylight
08 Apr - 19:19:17 10° S 19:21:09 10° S 19:23:30 10° SSE visible
08 Apr - 21:43:58 10° SSW 21:57:25 24° SSE 22:16:40 10° ESE visible
